DW2659 Weather Reports


time (UTC)temp
F
wind
direction
speed
knots
gust
knots
rain 1hr
in
rain 24hr
in
rain mn
in
humidity
%
barometer
mb
20260906134902 83 75 0.9 1.7 0.00 0.00 0.00 74 1013.1
20260906133904 81 101 1.7 2.6 0.00 0.00 0.00 78 1013.2
20260906133402 80 101 0.9 1.7 0.00 0.00 0.00 80 1013.2
20260906132903 79 101 0.0 0.9 0.00 0.00 0.00 83 1013.3
20260906132404 78 101 0.0 1.7 0.00 0.00 0.00 84 1013.3
20260906131903 78 101 0.0 0.9 0.00 0.00 0.00 86 1013.3
20260906131403 77 91 0.9 1.7 0.00 0.00 0.00 87 1013.1
20260906130402 76 240 0.0 0.9 0.00 0.00 0.00 89 1013.1
20260906124903 75 240 0.9 1.7 0.00 0.00 0.00 90 1013.1
20260906124402 74 240 0.0 0.9 0.00 0.00 0.00 92 1013.0
20260906123403 74 240 0.0 0.9 0.00 0.00 0.00 92 1013.0
20260906122403 74 240 0.0 0.9 0.00 0.00 0.00 92 1012.9
20260906121903 73 240 0.0 0.9 0.00 0.00 0.00 92 1012.9
20260906120904 73 240 0.0 0.0 0.00 0.00 0.00 92 1012.8
20260906115903 73 240 0.0 0.0 0.00 0.00 0.00 92 1012.6
20260906115405 73 240 0.0 0.0 0.00 0.00 0.00 92 1012.6
20260906114903 73 240 0.0 0.0 0.00 0.00 0.00 91 1012.6
20260906114403 73 240 0.0 0.0 0.00 0.00 0.00 91 1012.4
20260906113902 73 240 0.0 0.0 0.00 0.00 0.00 91 1012.4
20260906113404 73 240 0.0 0.0 0.00 0.00 0.00 91 1012.4
20260906112903 73 240 0.0 0.0 0.00 0.00 0.00 91 1012.4
20260906111904 73 240 0.9 0.9 0.00 0.00 0.00 91 1012.4
20260906110405 73 240 0.0 0.0 0.00 0.00 0.00 91 1012.1
20260906105403 73 240 0.0 0.0 0.00 0.00 0.00 91 1012.1
20260906103903 73 240 0.0 0.0 0.00 0.00 0.00 90 1012.2
20260906103403 73 240 0.0 0.0 0.00 0.00 0.00 90 1012.2
20260906102904 73 240 0.0 0.9 0.00 0.00 0.00 90 1012.2
20260906101404 74 240 0.0 0.0 0.00 0.00 0.00 90 1012.2
20260906100903 74 240 0.0 0.9 0.00 0.00 0.00 90 1012.3
20260906100403 74 240 0.0 0.9 0.00 0.00 0.00 90 1012.3
20260906095403 74 240 0.0 0.9 0.00 0.00 0.00 89 1012.3
20260906094903 74 240 0.0 0.9 0.00 0.00 0.00 89 1012.3
20260906094403 74 240 0.0 0.9 0.00 0.00 0.00 89 1012.4
20260906093905 74 240 0.9 1.7 0.00 0.00 0.00 89 1012.4
20260906093403 74 240 0.0 0.9 0.00 0.00 0.00 89 1012.4
20260906092903 74 240 0.0 1.7 0.00 0.00 0.00 89 1012.5
20260906092404 74 145 0.0 1.7 0.00 0.00 0.00 90 1012.5
20260906091903 74 126 0.0 0.9 0.00 0.00 0.00 90 1012.5
20260906091403 74 127 0.9 1.7 0.00 0.00 0.00 89 1012.6
20260906090904 74 209 0.0 0.0 0.00 0.00 0.00 90 1012.6
20260906090403 74 209 0.0 0.9 0.00 0.00 0.00 90 1012.6
20260906085404 73 106 0.0 0.9 0.00 0.00 0.00 90 1012.6
20260906084903 73 106 0.0 1.7 0.00 0.00 0.00 90 1012.6
20260906083904 73 306 0.9 4.3 0.00 0.00 0.00 91 1012.3
20260906082903 73 57 0.9 1.7 0.00 0.00 0.00 91 1012.3
20260906082403 73 121 0.0 0.9 0.00 0.00 0.00 91 1012.3
20260906081904 73 121 0.9 0.9 0.00 0.00 0.00 91 1012.3
20260906081403 73 121 0.0 0.0 0.00 0.00 0.00 91 1012.4
20260906080405 73 121 0.0 0.9 0.00 0.00 0.00 91 1012.4
20260906075403 73 121 0.9 1.7 0.00 0.00 0.00 91 1012.4
20260906074903 73 197 0.9 1.7 0.00 0.00 0.00 92 1012.4
20260906074404 73 197 0.9 2.6 0.00 0.00 0.00 92 1012.0
20260906073903 73 294 0.9 1.7 0.00 0.00 0.00 92 1012.0
20260906072903 73 119 0.0 0.0 0.00 0.00 0.00 92 1011.9
20260906072404 73 119 0.0 0.9 0.00 0.00 0.00 92 1011.9
20260906071903 73 119 0.0 0.9 0.00 0.00 0.00 92 1011.9
20260906071403 72 119 0.0 0.9 0.00 0.00 0.00 92 1012.1
20260906070904 72 119 0.0 0.0 0.00 0.00 0.00 92 1012.1
20260906070403 73 119 0.0 0.0 0.00 0.00 0.00 92 1012.1
20260906065903 72 119 0.0 0.0 0.00 0.00 0.00 92 1012.3
20260906065404 73 119 0.0 0.0 0.00 0.00 0.00 92 1012.3
20260906064404 73 119 0.9 0.9 0.00 0.00 0.00 92 1012.3
20260906063403 73 119 0.0 0.9 0.00 0.00 0.00 91 1012.4
20260906062903 73 119 0.9 0.9 0.00 0.00 0.00 91 1012.4
20260906062404 73 119 0.9 0.9 0.00 0.00 0.00 91 1012.4
20260906061903 73 119 0.0 0.0 0.00 0.00 0.00 91 1012.4
20260906061403 73 119 0.0 0.9 0.00 0.00 0.00 91 1012.4
20260906060904 73 119 0.9 0.9 0.00 0.00 0.00 91 1012.4
20260906060403 73 119 0.0 0.9 0.00 0.00 0.00 91 1012.4
20260906055405 73 119 0.0 0.9 0.00 0.00 0.00 91 1012.6
20260906054904 73 119 0.9 1.7 0.00 0.00 0.00 91 1012.6
20260906054403 73 119 0.0 0.9 0.00 0.00 0.00 90 1012.7
20260906053904 73 119 0.9 1.7 0.00 0.00 0.00 91 1012.7
20260906053403 73 119 0.9 1.7 0.00 0.00 0.00 90 1012.7
20260906052903 73 119 0.0 0.0 0.00 0.00 0.00 90 1012.7
20260906052404 73 119 0.0 0.9 0.00 0.00 0.00 90 1012.7
20260906051904 73 119 0.0 0.9 0.00 0.00 0.00 90 1012.7
20260906051404 73 119 0.0 0.0 0.00 0.00 0.00 90 1012.7
20260906050904 73 119 0.0 1.7 0.00 0.00 0.00 90 1012.7
20260906050403 73 119 0.9 1.7 0.00 0.00 0.00 90 1012.7
20260906045903 73 119 0.0 0.9 0.00 0.00 0.00 90 1013.2
20260906045404 73 119 0.9 0.9 0.00 0.00 0.00 90 1013.2
20260906044903 74 119 0.9 0.9 0.00 0.00 0.00 90 1013.2
20260906044403 74 119 0.9 0.9 0.00 0.00 0.00 90 1013.2
20260906043905 74 119 0.0 0.9 0.00 0.00 0.00 89 1013.2
20260906043403 74 119 0.0 1.7 0.00 0.00 0.00 89 1013.2
20260906042903 74 119 0.0 1.7 0.00 0.00 0.00 89 1013.2
20260906042405 74 119 0.0 1.7 0.00 0.00 0.00 89 1013.3
20260906041403 74 11 0.0 0.9 0.00 0.00 0.00 89 1013.2
20260906040904 74 11 0.9 1.7 0.00 0.00 0.00 89 1013.2
20260906040403 74 11 0.9 0.9 0.00 0.00 0.00 89 1013.2
20260906035903 74 11 0.9 0.9 0.00 0.00 0.00 89 1013.1
20260906034904 74 11 0.0 0.9 0.00 0.00 0.00 89 1013.1
20260906034403 74 11 0.0 1.7 0.00 0.00 0.00 88 1013.0
20260906033903 74 11 0.9 1.7 0.00 0.00 0.00 88 1013.0
20260906033404 74 11 0.0 0.9 0.00 0.00 0.00 87 1013.0
20260906032903 74 11 0.9 0.9 0.00 0.00 0.00 87 1012.9
20260906032403 75 11 0.0 0.9 0.00 0.00 0.00 87 1012.9
20260906031905 75 11 0.0 0.0 0.00 0.00 0.00 87 1012.9
20260906030903 75 11 0.9 0.9 0.00 0.00 0.00 86 1012.9
20260906030405 75 11 0.0 0.0 0.00 0.00 0.00 86 1012.9
20260906025903 75 11 0.0 0.0 0.00 0.00 0.00 85 1012.9
20260906024905 75 11 0.0 0.9 0.00 0.00 0.00 85 1012.9
20260906023904 76 11 0.0 0.0 0.00 0.00 0.00 85 1012.7
20260906022904 76 11 0.0 0.0 0.00 0.00 0.00 84 1012.5
20260906022404 76 11 0.0 0.0 0.00 0.00 0.00 84 1012.5
20260906021903 76 11 0.0 0.0 0.00 0.00 0.00 84 1012.5
20260906021405 76 11 0.0 0.0 0.00 0.00 0.00 84 1012.5
20260906020903 77 11 0.0 0.0 0.00 0.00 0.00 84 1012.5
20260906020404 77 11 0.0 0.0 0.00 0.00 0.00 83 1012.5
20260906015905 77 11 0.0 0.9 0.00 0.00 0.00 83 1012.7
20260906015404 77 11 0.9 1.7 0.00 0.00 0.00 83 1012.6
20260906014904 77 11 0.0 0.0 0.00 0.00 0.00 82 1012.6
20260906014405 77 11 0.0 0.0 0.00 0.00 0.00 82 1012.4
20260906013904 77 11 0.0 0.9 0.00 0.00 0.00 82 1012.4
20260906013405 77 11 0.0 0.9 0.00 0.00 0.00 82 1012.4
20260906012904 78 11 0.0 0.9 0.00 0.00 0.00 82 1012.2
20260906011905 78 11 0.0 0.0 0.00 0.00 0.00 82 1012.2
20260906010903 78 11 0.0 0.0 0.00 0.00 0.00 83 1011.4
20260906010405 78 11 0.0 0.0 0.00 0.00 0.00 83 1011.4
20260906005904 78 11 0.0 0.0 0.00 0.00 0.00 83 1011.4
20260906005403 78 11 0.0 0.9 0.00 0.00 0.00 82 1011.4
20260906004904 78 11 0.0 0.9 0.00 0.00 0.00 83 1011.4
20260906004403 79 11 0.0 0.0 0.00 0.00 0.00 82 1011.3
20260906003903 79 11 0.0 0.0 0.00 0.00 0.00 81 1011.3
20260906003405 79 11 0.0 1.7 0.00 0.00 0.00 81 1011.3
20260906002904 80 11 0.0 0.9 0.00 0.00 0.00 80 1011.4
20260906002403 80 11 0.9 1.7 0.00 0.00 0.00 80 1011.5
20260906001905 80 11 0.0 1.7 0.00 0.00 0.00 79 1011.5
20260906001403 81 11 0.0 0.0 0.00 0.00 0.00 79 1011.6
20260906000903 81 11 0.0 0.9 0.00 0.00 0.00 78 1011.6
20260906000405 81 11 0.0 0.9 0.00 0.00 0.00 77 1011.6
20260905235903 82 11 0.0 0.9 0.00 0.00 0.00 76 1011.8
20260905235403 82 11 0.9 1.7 0.00 0.00 0.00 75 1011.8
20260905234905 83 11 0.9 1.7 0.00 0.00 0.00 74 1011.8
20260905234404 83 11 0.9 1.7 0.00 0.00 0.00 73 1011.8
20260905233903 83 11 0.9 1.7 0.00 0.00 0.00 71 1011.9
20260905233404 84 11 0.9 0.9 0.00 0.00 0.00 70 1011.7
20260905232905 84 11 0.0 0.0 0.00 0.00 0.00 70 1011.7
20260905232404 84 11 0.0 0.0 0.00 0.00 0.00 69 1011.7
20260905231405 85 11 0.0 0.0 0.00 0.00 0.00 68 1011.4
20260905225905 87 11 0.9 1.7 0.00 0.00 0.00 64 1011.4
20260905225403 87 11 0.9 1.7 0.00 0.00 0.00 64 1011.0
20260905224904 88 11 0.9 1.7 0.00 0.00 0.00 62 1011.0
20260905224405 88 11 0.9 1.7 0.00 0.00 0.00 63 1011.0
20260905222904 90 11 0.9 2.6 0.00 0.00 0.00 60 1011.7
20260905222404 90 11 0.9 2.6 0.00 0.00 0.00 61 1011.7
20260905221904 91 11 0.9 1.7 0.00 0.00 0.00 60 1011.7
20260905221405 91 11 0.0 0.9 0.00 0.00 0.00 60 1012.1
20260905220904 91 11 0.9 1.7 0.00 0.00 0.00 60 1012.1
20260905220404 91 11 0.9 2.6 0.00 0.00 0.00 60 1012.1
20260905215403 90 11 0.9 1.7 0.00 0.00 0.00 60 1012.1
20260905214904 90 11 0.9 1.7 0.00 0.00 0.00 61 1012.1
20260905213904 88 11 0.9 2.6 0.00 0.00 0.00 64 1012.1
20260905213404 87 11 1.7 2.6 0.00 0.00 0.00 66 1012.1
20260905212905 86 9 1.7 2.6 0.00 0.00 0.00 68 1011.9
20260905212404 85 22 1.7 2.6 0.00 0.00 0.00 66 1011.9
20260905211904 86 22 2.6 4.3 0.00 0.00 0.00 65 1011.9
20260905211405 88 33 2.6 4.3 0.00 0.00 0.00 65 1011.7
20260905210904 89 31 1.7 4.3 0.00 0.00 0.00 61 1011.7
20260905205905 91 19 6.1 10.4 0.00 0.00 0.00 51 1011.5
20260905205404 94 24 5.2 8.7 0.00 0.00 0.00 49 1011.5
20260905204904 97 16 5.2 8.7 0.00 0.00 0.00 45 1011.5
20260905204405 99 12 5.2 10.4 0.00 0.00 0.00 45 1011.5
20260905203904 99 19 1.7 6.1 0.00 0.00 0.00 47 1011.5
20260905203404 98 47 1.7 2.6 0.00 0.00 0.00 49 1011.5
20260905202904 98 39 0.9 2.6 0.00 0.00 0.00 49 1011.5
20260905202404 97 13 2.6 4.3 0.00 0.00 0.00 50 1011.5
20260905201903 97 23 1.7 4.3 0.00 0.00 0.00 50 1011.5
20260905201405 97 15 1.7 2.6 0.00 0.00 0.00 49 1011.5
20260905200903 96 71 0.9 1.7 0.00 0.00 0.00 54 1011.5
20260905200404 96 71 0.0 1.7 0.00 0.00 0.00 55 1011.6
20260905195403 96 71 0.0 0.9 0.00 0.00 0.00 55 1011.5
20260905194904 96 71 0.0 0.0 0.00 0.00 0.00 54 1011.5
20260905193905 97 71 0.0 0.0 0.00 0.00 0.00 54 1011.8
20260905193403 97 71 0.0 0.0 0.00 0.00 0.00 54 1011.8
20260905191904 99 71 0.0 0.0 0.00 0.00 0.00 50 1012.1
20260905191404 99 71 0.0 0.9 0.00 0.00 0.00 49 1012.1
20260905190905 99 71 0.0 0.9 0.00 0.00 0.00 48 1012.1
20260905190404 100 62 0.9 1.7 0.00 0.00 0.00 47 1012.1
20260905185904 100 5 0.9 4.3 0.00 0.00 0.00 46 1012.1
20260905185405 99 23 1.7 2.6 0.00 0.00 0.00 48 1012.1
20260905184904 99 23 2.6 2.6 0.00 0.00 0.00 45 1012.1
20260905184404 99 295 1.7 2.6 0.00 0.00 0.00 45 1012.1
20260905183905 99 358 1.7 4.3 0.00 0.00 0.00 46 1012.1
20260905183403 99 62 1.7 4.3 0.00 0.00 0.00 45 1012.2
20260905182904 98 71 1.7 2.6 0.00 0.00 0.00 45 1012.4
20260905182405 98 93 1.7 4.3 0.00 0.00 0.00 46 1012.4
20260905181402 98 231 0.9 2.6 0.00 0.00 0.00 45 1012.5
20260905180904 98 32 1.7 2.6 0.00 0.00 0.00 47 1012.8
20260905180402 98 242 0.9 2.6 0.00 0.00 0.00 46 1012.8
20260905174902 98 83 1.7 2.6 0.00 0.00 0.00 45 1013.2
20260905174402 98 11 1.7 4.3 0.00 0.00 0.00 49 1013.2
20260905173904 98 68 0.9 2.6 0.00 0.00 0.00 47 1013.2
20260905173402 98 70 1.7 4.3 0.00 0.00 0.00 48 1013.2
20260905172902 98 105 0.9 2.6 0.00 0.00 0.00 47 1013.2
20260905172404 98 276 1.7 2.6 0.00 0.00 0.00 48 1013.2
20260905171902 98 216 0.9 1.7 0.00 0.00 0.00 50 1013.2
20260905171402 97 90 0.9 2.6 0.00 0.00 0.00 49 1013.4
20260905170903 97 0 0.9 2.6 0.00 0.00 0.00 52 1013.4
20260905170403 97 248 2.6 2.6 0.00 0.00 0.00 51 1013.4
20260905165402 96 353 1.7 2.6 0.00 0.00 0.00 51 1013.6
20260905164403 96 139 3.5 6.1 0.00 0.00 0.00 53 1013.9
20260905163902 96 57 0.9 2.6 0.00 0.00 0.00 53 1013.9
20260905163404 96 354 0.9 2.6 0.00 0.00 0.00 55 1013.9
20260905162402 96 80 0.9 1.7 0.00 0.00 0.00 55 1014.0
20260905161402 94 199 1.7 2.6 0.00 0.00 0.00 56 1014.1
20260905160903 94 345 0.9 1.7 0.00 0.00 0.00 57 1014.1
20260905160404 94 106 0.9 2.6 0.00 0.00 0.00 57 1014.1
20260905155902 94 50 0.9 2.6 0.00 0.00 0.00 59 1014.2
20260905155403 93 33 0.9 2.6 0.00 0.00 0.00 60 1014.2
20260905154903 93 114 0.9 1.7 0.00 0.00 0.00 59 1014.4
20260905154403 93 59 1.7 2.6 0.00 0.00 0.00 59 1014.4
20260905153902 92 38 0.9 2.6 0.00 0.00 0.00 62 1014.4
20260905152902 90 98 0.9 1.7 0.00 0.00 0.00 62 1014.4
20260905152403 90 118 1.7 2.6 0.00 0.00 0.00 61 1014.4
20260905151903 90 48 1.7 4.3 0.00 0.00 0.00 61 1014.4
20260905151403 90 119 1.7 2.6 0.00 0.00 0.00 62 1014.6
20260905150902 90 90 2.6 4.3 0.00 0.00 0.00 61 1014.6
20260905145902 89 99 1.7 4.3 0.00 0.00 0.00 63 1014.9
20260905144904 90 176 1.7 2.6 0.00 0.00 0.00 61 1014.9
20260905144403 89 120 0.9 2.6 0.00 0.00 0.00 65 1014.9
20260905143902 89 68 0.9 2.6 0.00 0.00 0.00 65 1014.9
20260905142903 88 153 1.7 4.3 0.00 0.00 0.00 67 1014.9
20260905142402 88 5 0.9 1.7 0.00 0.00 0.00 67 1014.9
20260905141904 87 25 0.9 1.7 0.00 0.00 0.00 69 1014.9
20260905141402 86 75 0.0 2.6 0.00 0.00 0.00 70 1014.8
20260905140403 85 69 1.7 4.3 0.00 0.00 0.00 71 1014.8
20260905135903 85 105 1.7 2.6 0.00 0.00 0.00 70 1014.9
20260905135403 85 99 1.7 4.3 0.00 0.00 0.00 71 1014.9